This is the latest recevied weather packets stored in our database for station/object KC1TEM-13. If no packets are shown the sender has not sent any weather packets the latest 10 day(s).
| Time | Temp. | Humidity | Pressure | Rain* | Wind** | Luminosity | Snow |
|---|---|---|---|---|---|---|---|
| 1778069532 | 17.78° C | 69% | 1009.6 hPa | 0 mm | - | 354 W/m² | - |
| 1778069230 | 17.78° C | 70% | 1009.8 hPa | 0 mm | - | 122 W/m² | - |
| 1778068928 | 17.78° C | 70% | 1009.8 hPa | 0 mm | - | 94 W/m² | - |
| 1778068626 | 17.78° C | 70% | 1009.9 hPa | 0 mm | - | 99 W/m² | - |
| 1778068324 | 17.78° C | 70% | 1009.9 hPa | 0 mm | - | 107 W/m² | - |
| 1778068021 | 17.78° C | 70% | 1009.8 hPa | 0 mm | - | 101 W/m² | - |
| 1778067718 | 17.78° C | 70% | 1009.8 hPa | 0 mm | - | 106 W/m² | - |
| 1778067417 | 17.78° C | 70% | 1009.9 hPa | 0 mm | - | 97 W/m² | - |
| 1778067114 | 17.22° C | 70% | 1009.7 hPa | 0 mm | - | 79 W/m² | - |
| 1778066810 | 17.22° C | 71% | 1010.1 hPa | 0 mm | - | 85 W/m² | - |
| 1778066508 | 17.22° C | 70% | 1010 hPa | 0 mm | - | 117 W/m² | - |
| 1778066205 | 17.22° C | 71% | 1009.8 hPa | 0 mm | - | 96 W/m² | - |
| 1778065903 | 17.22° C | 71% | 1009.7 hPa | 0 mm | - | 112 W/m² | - |
| 1778065600 | 17.22° C | 72% | 1009.9 hPa | 0 mm | - | 117 W/m² | - |
| 1778065297 | 16.67° C | 72% | 1010.1 hPa | 0 mm | - | 96 W/m² | - |
| 1778064993 | 16.67° C | 72% | 1009.9 hPa | 0 mm | - | 58 W/m² | - |
| 1778064691 | 16.67° C | 72% | 1010.1 hPa | 0 mm | - | 27 W/m² | - |
| 1778064389 | 16.67° C | 72% | 1010 hPa | 0 mm | - | 31 W/m² | - |
| 1778064086 | 16.67° C | 72% | 1009.8 hPa | 0 mm | - | 33 W/m² | - |
| 1778063783 | 16.67° C | 72% | 1009.9 hPa | 0 mm | - | 38 W/m² | - |
| 1778063480 | 16.67° C | 72% | 1009.9 hPa | 0 mm | - | 44 W/m² | - |
| 1778063178 | 16.67° C | 72% | 1009.8 hPa | 0 mm | - | 42 W/m² | - |
| 1778062875 | 16.67° C | 72% | 1010 hPa | 0 mm | - | 30 W/m² | - |
| 1778062572 | 16.67° C | 72% | 1010.1 hPa | 0 mm | - | 17 W/m² | - |
| 1778062268 | 16.67° C | 72% | 1010 hPa | 0 mm | - | 14 W/m² | - |
* Rain latest hour (hover to see other rain measurements)
** Current wind speed in m/s (hover to see current wind gust speed)